Hourly Weather Beja

Today, 29 July, Thursday

Time Temperature Precipitation Wind Pressure Humidity
00:00 +20°C° 0 mm 2 mps 739 mmHg 57%
01:00 +19°C° 0 mm 2 mps 739 mmHg 60%
02:00 +19°C° 0 mm 2 mps 739 mmHg 62%
03:00 +18°C° 0 mm 2 mps 739 mmHg 64%
04:00 +19°C° 0 mm 1 mps 739 mmHg 66%
05:00 +19°C° 0 mm 1 mps 739 mmHg 66%
06:00 +21°C° 0 mm 1 mps 739 mmHg 57%
07:00 +24°C° 0 mm 2 mps 740 mmHg 49%
08:00 +26°C° 0 mm 2 mps 740 mmHg 40%
09:00 +29°C° 0 mm 2 mps 740 mmHg 35%
10:00 +31°C° 0 mm 3 mps 740 mmHg 30%
11:00 +34°C° 0 mm 3 mps 740 mmHg 25%
12:00 +35°C° 0 mm 3 mps 740 mmHg 22%
13:00 +36°C° 0 mm 4 mps 739 mmHg 19%
14:00 +38°C° 0 mm 4 mps 739 mmHg 16%
15:00 +37°C° 0 mm 5 mps 739 mmHg 17%
16:00 +36°C° 0 mm 6 mps 739 mmHg 18%
17:00 +35°C° 0 mm 7 mps 739 mmHg 19%
18:00 +30°C° 0 mm 6 mps 739 mmHg 25%
19:00 +27°C° 0 mm 6 mps 740 mmHg 32%
20:00 +23°C° 0 mm 5 mps 740 mmHg 38%
21:00 +21°C° 0 mm 5 mps 740 mmHg 46%
22:00 +20°C° 0 mm 4 mps 740 mmHg 54%
23:00 +18°C° 0 mm 3 mps 741 mmHg 62%

Tomorrow, 30 July, Friday

Time Temperature Precipitation Wind Pressure Humidity
00:00 +17°C° 0 mm 3 mps 740 mmHg 67%
01:00 +16°C° 0 mm 3 mps 740 mmHg 72%
02:00 +14°C° 0 mm 3 mps 740 mmHg 78%
03:00 +14°C° 0 mm 3 mps 740 mmHg 82%
04:00 +15°C° 0 mm 2 mps 740 mmHg 85%
05:00 +15°C° 0 mm 2 mps 741 mmHg 89%
06:00 +18°C° 0 mm 3 mps 741 mmHg 77%
07:00 +21°C° 0 mm 4 mps 741 mmHg 66%
08:00 +25°C° 0 mm 5 mps 741 mmHg 54%
09:00 +27°C° 0 mm 5 mps 741 mmHg 45%
10:00 +30°C° 0 mm 5 mps 741 mmHg 36%
11:00 +34°C° 0 mm 6 mps 741 mmHg 26%
12:00 +35°C° 0 mm 6 mps 741 mmHg 25%
13:00 +36°C° 0 mm 6 mps 740 mmHg 24%
14:00 +36°C° 0 mm 7 mps 740 mmHg 22%
15:00 +35°C° 0 mm 7 mps 740 mmHg 24%
16:00 +34°C° 0 mm 7 mps 740 mmHg 25%
17:00 +32°C° 0 mm 7 mps 740 mmHg 26%
18:00 +29°C° 0 mm 7 mps 741 mmHg 35%
19:00 +26°C° 0 mm 7 mps 741 mmHg 44%
20:00 +22°C° 0 mm 6 mps 741 mmHg 53%
21:00 +20°C° 0 mm 6 mps 742 mmHg 60%
22:00 +19°C° 0 mm 5 mps 742 mmHg 67%
23:00 +17°C° 0 mm 5 mps 742 mmHg 74%

Day after tomorrow, 31 July, Saturday

Time Temperature Precipitation Wind Pressure Humidity
00:00 +16°C° 0 mm 5 mps 742 mmHg 77%
01:00 +15°C° 0 mm 5 mps 742 mmHg 81%
02:00 +15°C° 0 mm 5 mps 742 mmHg 84%
03:00 +14°C° 0 mm 5 mps 742 mmHg 84%
04:00 +14°C° 0 mm 5 mps 742 mmHg 84%
05:00 +14°C° 0 mm 5 mps 742 mmHg 84%
06:00 +16°C° 0 mm 5 mps 742 mmHg 72%
07:00 +19°C° 0 mm 6 mps 742 mmHg 59%
08:00 +21°C° 0 mm 7 mps 742 mmHg 46%
09:00 +23°C° 0 mm 7 mps 742 mmHg 38%
10:00 +26°C° 0 mm 7 mps 742 mmHg 31%
11:00 +28°C° 0 mm 7 mps 742 mmHg 23%
12:00 +29°C° 0 mm 7 mps 742 mmHg 22%
13:00 +30°C° 0 mm 7 mps 741 mmHg 21%
14:00 +30°C° 0 mm 7 mps 741 mmHg 19%
15:00 +29°C° 0 mm 8 mps 741 mmHg 22%
16:00 +28°C° 0 mm 8 mps 741 mmHg 25%
17:00 +27°C° 0 mm 8 mps 741 mmHg 28%
18:00 +24°C° 0 mm 8 mps 742 mmHg 34%
19:00 +22°C° 0 mm 7 mps 742 mmHg 40%
20:00 +18°C° 0 mm 7 mps 742 mmHg 46%
21:00 +19°C° 0 mm 6 mps 742 mmHg 53%
22:00 +17°C° 0 mm 6 mps 742 mmHg 59%
23:00 +16°C° 0 mm 5 mps 742 mmHg 66%

1 August, Sunday

Time Temperature Precipitation Wind Pressure Humidity
00:00 +15°C° 0 mm 5 mps 742 mmHg 73%
01:00 +14°C° 0 mm 5 mps 742 mmHg 79%
02:00 +13°C° 0 mm 5 mps 742 mmHg 86%
03:00 +13°C° 0 mm 4 mps 742 mmHg 87%
04:00 +13°C° 0 mm 4 mps 742 mmHg 88%
05:00 +13°C° 0 mm 4 mps 742 mmHg 89%
06:00 +17°C° 0 mm 4 mps 742 mmHg 75%
07:00 +19°C° 0 mm 5 mps 742 mmHg 62%
08:00 +22°C° 0 mm 6 mps 742 mmHg 48%
09:00 +24°C° 0 mm 6 mps 742 mmHg 43%
10:00 +27°C° 0 mm 6 mps 742 mmHg 39%
11:00 +29°C° 0 mm 6 mps 741 mmHg 34%
12:00 +30°C° 0 mm 6 mps 741 mmHg 33%
13:00 +32°C° 0 mm 6 mps 741 mmHg 32%
14:00 +33°C° 0 mm 6 mps 740 mmHg 32%
15:00 +30°C° 0 mm 7 mps 740 mmHg 37%
16:00 +28°C° 0 mm 7 mps 740 mmHg 43%
17:00 +27°C° 0 mm 8 mps 740 mmHg 49%
18:00 +24°C° 0 mm 7 mps 740 mmHg 59%
19:00 +22°C° 0 mm 6 mps 740 mmHg 69%
20:00 +21°C° 0 mm 5 mps 741 mmHg 80%
21:00 +20°C° 0 mm 4 mps 740 mmHg 84%
22:00 +20°C° 0 mm 4 mps 740 mmHg 88%
23:00 +19°C° 0 mm 3 mps 740 mmHg 92%

2 August, Monday

Time Temperature Precipitation Wind Pressure Humidity
00:00 +19°C° 0 mm 3 mps 740 mmHg 93%
01:00 +19°C° 0 mm 2 mps 739 mmHg 93%
02:00 +19°C° 0 mm 2 mps 739 mmHg 93%
03:00 +18°C° 0 mm 2 mps 739 mmHg 94%
04:00 +18°C° 0 mm 2 mps 739 mmHg 94%
05:00 +19°C° 0 mm 1 mps 739 mmHg 95%
06:00 +19°C° 0 mm 2 mps 739 mmHg 84%
07:00 +21°C° 0 mm 2 mps 739 mmHg 74%
08:00 +24°C° 0 mm 2 mps 739 mmHg 64%
09:00 +26°C° 0 mm 2 mps 739 mmHg 54%
10:00 +28°C° 0 mm 2 mps 739 mmHg 44%
11:00 +31°C° 0 mm 1 mps 739 mmHg 33%
12:00 +32°C° 0 mm 2 mps 738 mmHg 30%
13:00 +34°C° 0 mm 2 mps 738 mmHg 26%
14:00 +34°C° 0 mm 3 mps 737 mmHg 22%
15:00 +34°C° 0 mm 4 mps 737 mmHg 24%
16:00 +33°C° 0 mm 4 mps 737 mmHg 26%
17:00 +33°C° 0 mm 5 mps 737 mmHg 28%
18:00 +29°C° 0 mm 5 mps 737 mmHg 35%
19:00 +26°C° 0 mm 6 mps 738 mmHg 42%
20:00 +23°C° 0 mm 6 mps 738 mmHg 49%
21:00 +22°C° 0 mm 5 mps 738 mmHg 52%
22:00 +21°C° 0 mm 3 mps 738 mmHg 54%
23:00 +20°C° 0 mm 2 mps 739 mmHg 56%

3 August, Tuesday

Time Temperature Precipitation Wind Pressure Humidity
00:00 +19°C° 0 mm 2 mps 738 mmHg 60%
01:00 +18°C° 0 mm 2 mps 738 mmHg 63%
02:00 +17°C° 0 mm 2 mps 738 mmHg 67%
03:00 +17°C° 0 mm 2 mps 738 mmHg 69%
04:00 +17°C° 0 mm 2 mps 738 mmHg 72%
05:00 +18°C° 0 mm 1 mps 739 mmHg 74%
06:00 +19°C° 0 mm 2 mps 739 mmHg 64%
07:00 +23°C° 0 mm 2 mps 739 mmHg 53%
08:00 +26°C° 0 mm 2 mps 739 mmHg 43%
09:00 +28°C° 0 mm 2 mps 739 mmHg 37%
10:00 +31°C° 0 mm 2 mps 739 mmHg 30%
11:00 +34°C° 0 mm 3 mps 739 mmHg 24%
12:00 +35°C° 0 mm 3 mps 738 mmHg 22%
13:00 +36°C° 0 mm 4 mps 738 mmHg 20%
14:00 +37°C° 0 mm 4 mps 737 mmHg 18%
15:00 +36°C° 0 mm 5 mps 737 mmHg 20%
16:00 +35°C° 0 mm 6 mps 737 mmHg 21%
17:00 +34°C° 0 mm 7 mps 737 mmHg 23%
18:00 +30°C° 0 mm 7 mps 738 mmHg 31%
19:00 +26°C° 0 mm 6 mps 738 mmHg 39%
20:00 +22°C° 0 mm 6 mps 739 mmHg 46%
21:00 +21°C° 0 mm 5 mps 739 mmHg 52%
22:00 +20°C° 0 mm 5 mps 739 mmHg 58%
23:00 +19°C° 0 mm 4 mps 739 mmHg 63%
Show more

We Need Your Consent

Meteoprog and our Service Providers may store and access personal data such as cookies, device identifiers or other similar technologies on your device and process such data to personalise content and ads, as well as provide social media features and to analyse the traffic.

  • Store and/or access information on your device

    Cookies, device identifiers or other information can be stored or accessed on your device for the purposes indicated above.

  • Personalised ads and content, ad and content measurement, audience insights, and products development

    Ads and content can be personalised based on a profile. More data can be added to better personalise ads and content. Ad and content performance can be measured. Insights about the audience who saw the ads and content can be derived. Such data can be used to develop or improve user’s experience, systems and software.

By clicking ‘I Agree’ you will allow the use of indicated cookies, device identifiers, web beacons or other similar technologies. Your settings can be changed in the browser on your device.

For certain purposes, legitimate interests may be relied on, rather than consent. You can read more about this in our Privacy and Cookie Policy.